Regional Weather Roundup
Issued by NWS Sioux Falls, SD

Home | Current Version | Previous Version | Text Only | Print | Product List | Glossary On
Versions: 1 2 3 4 5 6 7 8 9 10 11 12 13 14 15 16 17 18 19 20 21 22 23 24 25 26 27 28 29 30 31 32 33 34 35 36 37 38 39 40 41 42 43 44 45 46 47 48 49 50
000
ASUS43 KFSD 290502
RWRFSD

WEATHER ROUNDUP FOR SE SOUTH DAKOTA/SW MINNESOTA/NW IOWA
NATIONAL WEATHER SERVICE SIOUX FALLS SD
1200 AM CDT TUE JUL 29 2014

NOTE: "FAIR" INDICATES FEW OR NO CLOUDS BELOW 12,000 FEET WITH NO
SIGNIFICANT WEATHER AND OR OBSTRUCTIONS TO VISIBILITY.


SDZ038>040-050-052>070-290600-
SOUTHEAST SOUTH DAKOTA

CITY           SKY/WX    TMP DP  RH WIND       PRES   REMARKS
CHAMBERLAIN    CLEAR     60  51  73 E5        30.24S
HURON          CLEAR     57  52  83 CALM      30.22S
MADISON        FAIR      54  54 100 CALM      30.23F
MITCHELL       CLEAR     60  54  80 CALM      30.23S
SIOUX FALLS    CLEAR     57  54  89 CALM      30.22F
WINNER         FAIR      62  50  64 SE6       30.25R
YANKTON        CLEAR     61  54  77 N6        30.22S
$$

MNZ071-072-080-081-089-090-097-098-290600-
SOUTHWEST MINNESOTA

CITY           SKY/WX    TMP DP  RH WIND       PRES   REMARKS
FAIRMONT       CLEAR     59  50  72 NW6       30.18S
JACKSON        CLEAR     55  52  88 W5        30.21S
LUVERNE        CLEAR     55  52  88 CALM      30.23S
MARSHALL       CLEAR     55  48  76 W9        30.20S
MONTEVIDEO     CLEAR     59  54  82 NW5       30.20S
PIPESTONE      CLEAR     61  54  77 CALM      30.23S
REDWOOD FALLS  CLEAR     59  54  83 W8        30.18S
TRACY          CLEAR     60  53  76 W6        30.22R
WINDOM         CLEAR     55  54  94 W6        30.21S
WORTHINGTON    CLEAR     55  52  88 NW6       30.22F
$$

IAZ001>003-012>014-020>022-031-032-NEZ013-014-SDZ071-290600-
NORTHWEST IOWA

CITY           SKY/WX    TMP DP  RH WIND       PRES   REMARKS
CHEROKEE       PTCLDY    59  58  97 CALM      30.21R
DENISON        CLEAR     59  59 100 CALM      30.18S
ESTHERVILLE    CLEAR     56  54  93 NW7       30.20R
LE MARS        MOCLDY    59  57  94 CALM      30.22S
ORANGE CITY    CLEAR     64  55  72 CALM      30.22S
SIOUX CITY     CLEAR     59  56  89 NW3       30.21R
SPENCER        CLEAR     53  51  93 NW6       30.21S
STORM LAKE     CLEAR     57  57 100 N6        30.21S
$$

ABBREVIATIONS USED IN REMARKS
   TC - TEMPERATURE IN CELSIUS
  WCI - WIND CHILL INDEX
   HX - HEAT INDEX
  VSB - VISIBILITY




USA.gov is the U.S. government's official web portal to all federal, state and local government web resources and services.